RH
97 97 96 98 95 92 90 88 88 89 88 88 90 91 90 89 86 84 84 83 82 80 79 76 71 69 70 72 77 68 58 58
96 96 95 94 94 94 94 92 92 90 88 88 89 91 91 89 87 84 83 82 81 80 80 74 68 63 62 68 73 68 62 67
95 94 92 92 88 92 91 90 89 86 84 84 83 82 82 79 84 85 84 83 82 81 78 72 68 60 58 64 63 60 71 80
96 94 92 88 86 92 92 85 83 79 74 70 64 74 77 78 85 87 85 83 81 80 77 72 66 55 60 62 53 64 74 85
95 93 92 86 90 87 88 92 80 73 72 70 73 75 79 83 84 87 90 84 78 78 76 64 59 63 58 57 48 55 67 75
91 90 90 91 69 76 87 89 77 79 75 75 77 84 72 78 76 78 76 80 69 69 70 68 64 54 54 50 41 47 63 69
89 89 92 92 92 92 91 92 76 76 86 80 70 74 76 70 73 71 69 75 68 72 72 65 59 55 54 45 42 40 54 62
93 93 92 89 92 83 88 90 70 76 74 72 75 77 86 75 75 71 77 68 71 73 68 64 62 56 51 41 40 43 43 62
91 89 86 85 88 86 87 91 74 77 67 71 72 72 73 77 89 86 88 78 72 68 70 68 67 59 50 44 42 41 40 40
86 80 89 87 88 91 79 72 77 73 73 77 70 71 75 79 86 85 91 77 73 73 74 73 68 63 58 50 51 46 39 37
87 88 87 86 82 75 69 74 77 75 73 74 72 72 74 77 83 84 80 78 78 73 73 72 74 65 53 56 53 54 44 36
85 84 81 82 83 66 72 70 75 77 75 72 78 74 76 84 87 90 89 81 79 82 77 76 70 61 39 45 58 56 57 55
82 82 74 76 81 67 62 61 68 72 74 64 72 77 81 83 92 86 92 83 81 79 79 71 64 60 57 62 66 66 60 60
76 73 71 69 84 50 50 61 70 66 65 67 68 77 79 87 90 90 90 90 86 84 76 76 69 65 62 81 78 75 75 65
64 61 62 63 77 69 59 63 69 71 73 66 67 76 82 85 87 92 93 95 92 87 81 71 73 75 70 76 84 83 76 74
61 56 55 59 70 72 66 72 66 60 64 72 85 80 82 82 84 87 91 94 92 92 83 80 72 68 79 68 74 72 70 72
63 59 58 60 68 68 78 81 63 64 58 77 82 92 90 89 91 94 91 89 93 91 85 79 81 80 78 76 77 74 72 70
64 64 64 62 65 66 74 83 79 68 76 73 91 95 96 93 94 95 92 96 94 90 83 81 84 82 76 74 75 75 71 77
61 62 63 60 63 63 72 84 79 71 88 80 93 94 98 97 96 96 96 94 89 86 83 85 86 89 90 91 84 79 70 72
57 58 58 57 62 66 66 71 81 84 86 94 90 91 93 93 95 93 92 91 86 85 89 90 91 94 90 90 91 78 74 67
Wind_Speed
11 11 18 17 15 18 17 19 21 20 19 19 20 18 19 19 19 18 18 16 15 13 11 8 9 10 11 12 14 16 9 8
14 14 14 16 15 20 16 17 20 21 20 18 18 17 17 17 16 16 16 15 14 13 10 8 8 9 11 11 15 15 8 8
12 11 13 10 14 18 14 17 17 17 17 19 13 8 10 10 12 14 14 14 13 12 9 8 7 7 7 10 11 5 7 4
11 11 12 15 11 15 13 9 7 7 9 8 8 7 7 8 11 14 11 11 11 10 7 6 5 4 3 7 5 5 6 4
9 10 5 8 7 6 7 6 5 7 8 6 7 8 6 5 3 4 4 5 3 4 4 2 1 3 4 5 6 5 4 3
10 10 7 5 6 5 5 6 6 4 4 7 7 6 6 4 3 4 4 3 5 4 3 3 5 6 6 5 6 5 4 3
13 10 8 5 6 4 5 4 5 4 5 6 8 6 6 6 5 5 5 5 4 4 4 4 5 5 5 6 4 6 6 3
13 13 10 11 6 9 4 3 5 4 4 4 6 5 5 4 5 6 4 6 4 5 5 5 4 5 5 4 4 5 6 6
14 16 15 14 12 11 6 4 3 4 2 3 5 5 5 5 5 5 5 5 7 5 4 4 4 3 5 5 4 4 3 5
12 11 12 13 11 9 10 7 3 4 3 3 3 2 3 4 4 4 5 4 5 5 4 3 4 5 4 3 4 4 5 4
15 14 13 13 11 9 10 5 3 3 3 3 5 5 5 4 4 4 5 4 5 4 2 3 3 3 5 5 5 4 4 3
13 12 14 12 10 9 5 4 2 3 4 4 6 5 7 5 4 4 5 4 4 3 4 3 3 4 3 4 4 4 5 4
13 12 14 11 8 10 8 9 6 3 4 8 8 8 7 6 4 4 5 5 5 6 4 5 2 2 3 2 2 3 5 4
14 14 14 11 6 10 7 7 3 6 6 7 10 11 9 6 6 5 7 4 5 6 5 2 2 3 4 2 2 3 2 4
16 17 18 13 9 5 6 5 4 3 4 6 8 11 10 9 9 7 6 4 4 5 6 7 4 2 3 5 1 4 1 3
18 18 19 15 13 10 14 11 9 7 6 5 6 10 9 10 9 8 8 7 5 5 6 4 5 4 1 1 3 4 2 3
18 19 19 19 16 16 13 13 9 8 9 7 8 6 8 7 7 7 5 7 6 6 5 5 4 4 4 2 1 2 3 3
20 22 23 22 22 22 18 14 12 9 9 9 6 4 4 8 5 6 6 6 6 6 5 6 5 4 3 3 2 2 3 3
21 24 24 23 22 21 20 16 14 15 7 10 7 5 3 6 8 6 5 6 6 6 6 7 7 5 5 4 1 2 1 2
24 23 22 22 21 21 17 17 14 12 9 6 8 8 9 7 6 4 5 6 6 6 5 5 6 6 7 4 1 2 1 3
Wind_Direction
103 105 108 116 94 116 110 114 113 107 107 107 105 109 115 117 118 120 119 120 115 110 95 79 63 43 34 29 48 105 102 104
111 105 108 109 117 82 81 100 107 110 110 104 99 103 108 115 117 121 122 119 117 109 108 98 77 50 37 25 51 92 97 102
94 101 107 103 120 103 98 96 101 111 110 106 101 107 107 112 120 116 119 121 121 125 135 132 115 85 45 24 66 103 97 96
106 113 130 132 136 123 118 119 109 106 107 94 108 101 107 112 115 114 120 125 132 135 136 121 92 56 36 42 67 104 100 95
125 122 130 131 112 125 131 124 113 122 109 110 120 106 98 98 108 103 114 122 122 129 125 112 318 117 74 63 73 80 93 95
122 119 116 107 115 105 104 116 119 115 107 122 122 100 125 138 141 142 149 178 164 160 157 194 146 118 97 86 84 105 110 106
122 113 111 88 99 119 108 93 105 124 102 132 128 137 155 159 159 174 177 182 180 167 158 142 107 95 91 94 93 88 124 119
123 115 104 106 98 108 103 91 114 105 126 90 145 158 164 172 165 196 184 183 173 163 171 144 142 133 111 107 109 100 122 153
122 122 125 126 116 110 93 331 114 146 152 203 153 164 180 182 179 191 186 184 165 160 139 135 144 140 147 146 129 130 115 100
126 129 131 133 136 145 169 209 211 139 131 210 215 154 243 191 183 167 186 167 140 142 146 151 171 155 169 177 162 165 139 145
149 146 143 140 152 174 188 225 224 168 173 212 225 203 236 197 195 199 159 155 138 156 163 157 174 164 176 173 174 144 176 171
145 152 151 155 157 177 193 237 235 211 216 205 214 218 214 197 193 193 159 157 163 162 171 189 174 182 168 168 187 186 179 176
154 163 167 160 177 185 197 206 217 206 204 210 204 204 202 192 204 171 176 178 188 188 160 182 162 154 92 18 270 241 208 180
168 175 191 190 191 190 192 201 212 205 210 214 210 200 199 182 195 192 182 190 195 192 165 143 173 166 141 101 314 339 330 225
175 177 188 205 195 189 209 232 257 210 226 222 215 196 181 183 196 182 179 183 210 191 169 156 182 214 177 145 117 217 332 323
177 181 189 199 195 199 209 219 218 215 213 215 195 184 188 193 203 197 173 185 202 193 183 160 143 177 45 133 123 138 166 314
186 185 191 197 200 204 210 217 220 202 204 195 195 179 190 198 201 211 195 184 177 193 180 178 163 150 148 141 89 165 181 176
189 194 196 199 197 207 210 206 215 207 202 198 183 180 160 181 219 224 174 173 180 185 183 161 134 119 97 69 124 130 228 183
195 197 198 198 200 205 206 205 214 219 190 189 172 165 162 203 204 203 186 174 160 141 137 131 135 138 120 106 276 276 179 125
197 198 201 199 202 207 204 206 198 196 199 189 177 183 183 186 174 195 152 141 146 130 119 119 121 123 123 148 225 233 188 201